Lid_Strength_Index
4 4 5 5 5 5 5 5 5 5 5 5 5 5 5 5 5 5 5 4 5 5 4 4 4 4 4 7 8 2 -2 -2 -1 0 2 3 4 5 6 6 5 7 6 5 4 4 4
4 4 5 5 5 5 6 6 6 6 6 6 6 5 5 5 5 5 5 5 5 5 5 4 4 4 6 10 5 4 1 -0 0 1 2 2 4 3 5 5 6 5 5 5 5 4 4
4 4 4 5 5 5 5 5 5 6 6 6 6 5 5 5 5 5 5 6 6 6 4 3 4 4 6 8 5 4 0 0 0 1 2 2 2 4 4 5 4 5 6 7 6 5 6
4 4 4 5 5 5 5 5 5 5 5 5 5 5 5 5 5 5 6 6 6 4 3 4 4 5 8 5 4 4 1 1 0 0 1 1 1 3 4 4 6 7 7 9 6 5 6
4 4 4 5 5 5 5 5 5 5 5 5 5 5 5 5 5 6 7 6 5 3 4 4 5 6 8 4 7 5 1 2 1 1 1 1 2 4 4 6 8 7 9 8 7 5 6
4 4 4 4 5 5 4 4 4 4 5 5 5 5 5 5 6 6 7 6 4 3 3 3 5 8 7 7 5 6 1 3 3 3 3 4 4 6 6 7 11 9 8 7 8 6 6
4 4 4 4 4 5 5 5 5 5 5 4 5 5 5 5 6 6 6 5 6 6 7 6 5 7 6 5 4 6 5 3 2 4 7 6 8 9 7 6 6 6 7 8 6 5 7
4 4 4 4 5 5 5 5 5 5 5 5 5 5 5 5 6 6 6 8 10 10 12 8 9 7 4 5 6 7 5 6 6 7 6 7 9 7 6 6 7 7 7 8 6 6 7
5 5 5 5 5 5 5 5 5 5 5 5 5 5 6 6 6 6 7 8 6 7 11 8 8 8 7 6 7 7 7 6 7 8 8 8 7 6 7 7 8 7 8 8 8 7 7
5 5 5 5 5 5 5 5 5 5 5 5 5 6 6 7 7 7 7 6 5 6 12 10 9 8 7 6 8 5 7 6 7 8 7 8 6 7 7 8 7 9 6 7 8 9 10
5 5 5 5 5 5 5 5 5 5 5 5 5 6 7 7 7 8 7 6 6 7 15 8 9 6 6 7 6 8 5 7 9 8 7 9 8 8 8 8 7 8 6 7 8 9 10
5 6 5 5 5 5 4 4 4 4 4 5 5 6 6 6 6 7 6 6 7 13 16 10 9 10 9 8 8 6 7 6 7 8 7 7 6 6 7 6 6 6 7 7 7 9 11
6 6 5 4 4 4 3 3 3 2 2 3 4 5 6 6 8 5 6 7 13 15 10 11 10 9 9 9 8 8 8 9 9 11 10 8 8 7 6 7 6 7 8 11 11 11 12
5 4 3 3 2 2 2 1 1 1 1 1 2 3 3 4 4 5 6 10 16 12 12 10 10 9 10 8 9 9 9 10 8 8 9 11 12 8 7 7 8 8 8 11 13 12 11
4 3 2 2 2 1 0 0 0 1 1 2 3 1 2 2 1 2 6 13 13 11 12 12 11 11 10 9 9 9 9 9 8 7 10 10 10 7 7 6 6 8 9 7 9 9 10
3 2 2 1 1 0 0 0 1 1 1 2 2 3 2 -0 -1 1 6 10 9 9 10 10 11 11 11 10 10 9 9 9 8 7 7 8 10 8 7 6 6 7 6 9 9 12 13
2 2 1 0 0 0 0 0 1 1 2 2 3 5 1 -1 -0 4 8 8 7 6 8 9 10 11 10 10 10 10 9 9 9 8 8 8 9 9 8 9 9 9 9 8 8 9 12
2 1 1 0 0 0 0 1 1 2 2 2 4 7 1 -1 5 5 7 7 6 6 6 7 8 9 9 10 10 10 10 9 9 8 9 8 9 10 10 7 7 7 8 8 10 11 10
2 1 0 0 0 0 0 1 1 2 2 2 5 4 0 1 8 8 6 6 6 6 7 7 8 7 7 9 11 10 10 9 9 8 8 7 10 11 10 9 7 8 8 7 7 7 10
1 1 1 0 0 0 0 1 2 2 2 2 5 7 4 3 3 6 8 7 8 5 6 6 9 7 8 8 8 10 10 9 9 9 8 9 8 10 11 10 8 9 9 8 8 10 10
1 1 1 1 0 0 0 1 2 2 3 2 5 7 5 8 7 7 7 7 8 9 6 5 9 10 10 11 9 10 10 9 9 8 8 8 10 9 8 10 10 9 9 8 9 8 10
1 1 1 1 1 1 0 1 2 2 3 4 7 6 4 7 6 7 7 8 8 8 7 8 9 9 8 11 10 11 11 9 10 9 9 9 10 10 11 10 10 11 10 9 8 8 8
1 1 1 1 1 1 1 1 2 2 3 4 3 3 4 6 7 7 8 8 8 7 6 6 6 8 9 8 6 7 7 9 8 10 10 10 10 11 12 10 10 12 10 10 9 8 8
1 1 1 1 1 1 1 1 2 2 2 3 3 4 6 9 7 8 7 7 8 7 9 6 5 7 6 4 4 5 6 8 9 9 9 11 11 11 12 11 15 9 7 7 8 8 7
1 1 1 1 1 1 1 1 2 2 2 3 2 4 6 9 7 7 7 7 6 6 7 6 5 4 3 5 8 9 9 9 10 10 10 10 11 13 14 13 11 10 9 9 9 9 7
1 1 1 1 1 1 1 1 2 2 2 3 3 2 4 8 8 6 7 6 8 8 7 6 3 2 3 6 8 12 11 10 11 11 10 10 10 12 13 15 15 10 8 6 7 10 6
1 1 1 1 1 1 1 1 2 2 2 3 4 3 5 8 6 5 7 7 6 6 8 6 6 5 4 8 10 10 11 8 11 11 10 12 12 14 14 14 12 8 6 6 11 11 6
1 1 1 1 1 1 1 2 2 2 2 3 5 4 6 8 6 4 4 5 6 6 9 6 7 7 7 10 10 8 10 8 9 8 9 10 12 13 13 14 15 8 8 9 7 6 5
1 1 1 1 1 1 1 2 2 2 2 2 5 4 4 7 7 3 2 2 3 3 5 6 6 6 5 8 8 9 10 8 10 12 6 11 9 10 10 11 8 7 7 6 5 5 5